Regional Weather Roundup
Issued by NWS

Home | Current Version | Previous Version | Text Only | Print | Product List | Glossary On
Versions: 1 2 3 4 5 6 7 8 9 10 11 12 13 14 15 16 17 18 19 20 21 22 23 24 25 26 27 28 29 30 31 32 33 34 35 36 37 38 39 40 41 42 43 44 45 46 47 48
000
ASUS43 KMPX 130210
RWRMN
WEATHER ROUNDUP FOR MINNESOTA
NATIONAL WEATHER SERVICE TWIN CITIES/CHANHASSEN MN
900 PM CDT WED AUG 12 2020


NOTE: "FAIR" INDICATES FEW OR NO CLOUDS BELOW 12,000 FEET WITH NO
SIGNIFICANT WEATHER AND/OR OBSTRUCTIONS TO VISIBILITY. N/A MEANS
CURRENT SKY AND/OR WEATHER CONDITIONS ARE NOT AVAILABLE.

MNZ060>063-068>070-130300-
   Twin Cities Metro

CITY           SKY/WX    TMP DP  RH WIND       PRES   REMARKS
TWIN CITIES    CLOUDY    66  63  90 E9        30.01R
ST PAUL        CLOUDY    67  62  84 NE5       30.01S
CRYSTAL        CLOUDY    65  61  87 E7        30.00S
BLAINE         CLOUDY    66  64  94 E7        30.01F
LAKEVILLE      CLOUDY    68  61  77 NE3       30.00S
EDEN PRAIRIE   CLOUDY    67  63  87 E10       29.98F
SOUTH ST PAUL  CLOUDY    67  64  91 NE5       30.01R
LAKE ELMO      CLOUDY    63  63 100 E7        30.04R
$$
MNZ001>005-007-008-013>017-022>024-027-028-130300-
   Northwest Minnesota

CITY           SKY/WX    TMP DP  RH WIND       PRES   REMARKS
BEMIDJI        CLEAR     66  61  85 SE7       30.01S
HALLOCK        CLEAR     73  66  78 SE7       29.91R
ROSEAU         CLEAR     70 N/A N/A SE6       29.96S
WARROAD        CLEAR     72  66  83 S7        29.98R
THIEF RVR FALL CLEAR     70  63  78 SE12      29.96F
CROOKSTON      CLEAR     70  64  83 SE10      29.93S
FOSSTON        CLEAR     66  57  72 SE5       29.98F
DETROIT LAKES    N/A     68  59  73 SE8       29.98S
MOORHEAD       CLOUDY    72  61  68 E8        29.93S
PARK RAPIDS    CLEAR     67  59  75 E6        30.00S
MAHNOMEN       FAIR      66  62  86 E6        29.97S
$$
MNZ006-009>011-018-025>026-130300-
   North Central Minnesota

CITY           SKY/WX    TMP DP  RH WIND       PRES   REMARKS
BAUDETTE       MOCLDY    73  65  75 S9        30.00R
FLAG ISLAND      N/A     75  64  69 SE9       29.96R
INTL FALLS     CLEAR     71  60  68 VRB3      30.03R
WASKISH          N/A     66  61  82 SE3       30.02R
BIG FORK       CLEAR     63  59  88 S3        30.10R
LONGVILLE      CLEAR     64  61  88 E3        30.03R
GRAND RAPIDS   CLEAR     63  58  83 SE5       30.09R
CRANE LAKE     CLEAR     64  61  88 CALM      30.08R
ORR            CLEAR     66  61  82 SE3       30.05R
COOK           PTCLDY    66  61  82 CALM      30.07R
WALKER         FAIR      66  62  86 E6        30.02S
$$
MNZ012-019>021-037-130300-
   Northeast Minnesota

CITY           SKY/WX    TMP DP  RH WIND       PRES   REMARKS
DULUTH         MOCLDY    61  55  81 CALM      30.08F
ELY            PTCLDY    68  55  64 CALM      30.09R
HIBBING        PTCLDY    63  55  75 SE6       30.08R
EVELETH        MOCLDY    65  58  78 S9        30.10R
DULUTH HARBOR  MOCLDY    63  55  77 CALM      30.08S
TWO HARBORS    MOCLDY    63  52  67 W3        30.08F
SILVER BAY       N/A     64  57  77 CALM      30.09F
GRAND MARAIS     N/A     64  58  80 CALM      30.08R
G MARAIS ARPRT MOCLDY    63  55  77 CALM      30.12R
$$
MNZ029>031-032-039>041-046>048-054>057-064-130300-
   West Central Minnesota

CITY           SKY/WX    TMP DP  RH WIND       PRES   REMARKS
FERGUS FALLS   CLOUDY    70  63  78 E12       29.94S
WHEATON        PTCLDY    68  63  83 E14       29.92S
MORRIS         MOCLDY    66  64  94 E12       29.93S
ALEXANDRIA     CLOUDY    65  61  87 SE16      29.98S
ELBOW LAKE     CLOUDY    67  64  88 SE13      29.94S
WADENA         MOCLDY    64  61  88 E8        29.99R
GLENWOOD       CLEAR     64  63  94 E12       29.98R
APPLETON       PTCLDY    70  63  78 E15G21    29.91R
BENSON         PTCLDY    68  63  83 SE9G17    29.94S
ORTONVILLE     CLEAR     70  66  88 E13       29.90R
MADISON        CLEAR     75  72  88 E10       29.90S
WILLMAR        FAIR      70  63  78 E13G20    29.98F
$$
MNZ033>034-036-042>043-049>051-058-059-130300-
   Central Minnesota

CITY           SKY/WX    TMP DP  RH WIND       PRES   REMARKS
ST CLOUD       CLOUDY    62  60  93 E6        30.00S
SAUK CENTRE    CLOUDY    64  62  93 E9        29.99S
PAYNESVILLE    PTCLDY    65  64  95 E9        29.99S
AITKIN         CLOUDY    61  55  82 E7        30.04R
PINE RIVER     PTCLDY    63  57  82 SE9       30.06R
BRAINERD       MOCLDY    66  61  84 VRB5      30.03R
STAPLES        PTCLDY    63  61  94 E5        30.00R
LONG PRAIRIE   CLOUDY    63  61  94 E7        30.00S
LITTLE FALLS   CLOUDY    61  61 100 SE5       30.01S
CAMP RIPLEY    MOCLDY    63  61  94 E5        30.02R
LITCHFIELD     MOCLDY    66  64  94 E10       29.99S
BUFFALO        CLOUDY    64  60  87 MISG      30.01S
MAPLE LAKE       N/A     65  63  93 E8        30.01S
HUTCHINSON     CLEAR     66  64  94 E8        29.99S
$$
MNZ037-044-045-052-053-130300-
   East Central Minnesota

CITY           SKY/WX    TMP DP  RH WIND       PRES   REMARKS
PRINCETON      CLOUDY    64  63  94 E6        30.02S
MORA           CLOUDY    59  57  94 E5        30.05S
CAMBRIDGE      CLOUDY    63  55  77 E3        30.03S
RUSH CITY      CLOUDY    59  56  90 NE5       30.05R
MOOSE LAKE     MOCLDY    61  55  82 SE3       30.05S
HINCKLEY       CLOUDY    61  61 100 E8        30.06S
CLOQUET        MOCLDY    61  55  82 CALM      30.09R
MCGREGOR       CLEAR     61  59  94 E7        30.06S
$$
MNZ071>073-080-081-089-090-097-098-130300-
   Southwest Minnesota

CITY           SKY/WX    TMP DP  RH WIND       PRES   REMARKS
MONTEVIDEO     PTCLDY    70  63  78 SE16      29.92S
GRANITE FALLS  CLEAR     76  73  88 E7        29.93S
CANBY          CLOUDY    79  74  85 SE6       29.91R
MARSHALL       PTCLDY    79  73  82 SE9       29.92R
REDWOOD FALLS  PTCLDY    75  70  84 E9        29.93R
OLIVIA         MOCLDY    68  64  88 E8        29.95R
PIPESTONE        N/A     75  72  88 S7        29.94R
WINDOM         CLEAR     75  70  83 SE5       29.94R
WORTHINGTON    CLEAR     75  71  87 S8        29.95R
JACKSON        CLEAR     75  70  83 S7        29.96R
TRACY          CLEAR     77  68  73 S3        29.93R
SLAYTON        CLEAR     74  65  74 S8        29.95R
$$
MNZ065>067-074>077-082>085-091>093-130300-
   South Central Minnesota

CITY           SKY/WX    TMP DP  RH WIND       PRES   REMARKS
MANKATO        CLOUDY    73  71  93 E8        29.97R
NEW ULM        MOCLDY    75  68  78 E8        29.95S
ST JAMES         N/A     73  72  94 SE7       29.94R
FAIRMONT       CLEAR     76  72  87 SE10      29.96R
GLENCOE        PTCLDY    65  63  93 E8        29.98S
FARIBAULT      CLOUDY    73  66  78 E5        30.00S
OWATONNA       CLEAR     73  64  73 SE7       29.99S
ALBERT LEA     CLEAR     73  68  83 SE6       29.99F
$$
MNZ078>079-086>088-094>096-130300-
   Southeast Minnesota

CITY           SKY/WX    TMP DP  RH WIND       PRES   REMARKS
ROCHESTER      CLEAR     68  62  81 SE9       30.03S
RED WING       PTCLDY    72  63  73 E7        30.00R
STANTON        MOCLDY    71  66  84 NE6       29.98S
DODGE CENTER   PTCLDY    70  63  78 E6        30.02S
WINONA         PTCLDY    70  64  83 CALM      30.03R
AUSTIN         CLEAR     72  66  83 SE3       30.01S
PRESTON        CLEAR     71  61  69 SE5       30.05R
$$
ABBREVIATIONS USED IN REMARKS
   TC - TEMPERATURES IN CELSIUS
  WCI - WIND CHILL INDEX
   HX - HEAT INDEX
  VSB - VISIBILITY
$$




USA.gov is the U.S. government's official web portal to all federal, state and local government web resources and services.